This is the latest recevied weather packets stored in our database for station/object N5XJB. If no packets are shown the sender has not sent any weather packets the latest 1 day(s).
| Time | Temp. | Humidity | Pressure | Rain* | Wind** | Luminosity | Snow |
|---|---|---|---|---|---|---|---|
| 1778010648 | 28.89° C | 74% | 1009.7 hPa | 0 mm | 0.89 m/s, 282° | 426 W/m² | - |
| 1778010345 | 28.89° C | 74% | 1009.7 hPa | 0 mm | 0.89 m/s, 312° | 347 W/m² | - |
| 1778010040 | 29.44° C | 73% | 1009.7 hPa | 0 mm | 1.34 m/s, 288° | 313 W/m² | - |
| 1778009737 | 28.89° C | 74% | 1009.7 hPa | 0 mm | 0.89 m/s, 127° | 369 W/m² | - |
| 1778009434 | 29.44° C | 73% | 1009.7 hPa | 0 mm | 1.34 m/s, 90° | 392 W/m² | - |
| 1778009133 | 28.89° C | 74% | 1009.7 hPa | 0 mm | 0.89 m/s, 306° | 463 W/m² | - |
| 1778008830 | 28.89° C | 75% | 1009.7 hPa | 0 mm | 0.89 m/s, 294° | 512 W/m² | - |
| 1778008528 | 28.33° C | 76% | 1009.7 hPa | 0 mm | 1.34 m/s, 127° | 456 W/m² | - |
| 1778008226 | 28.89° C | 75% | 1009.7 hPa | 0 mm | 1.34 m/s, 132° | 295 W/m² | - |
| 1778007920 | 28.89° C | 76% | 1009.7 hPa | 0 mm | 0 m/s | 382 W/m² | - |
| 1778007617 | 28.33° C | 76% | 1010 hPa | 0 mm | 0.89 m/s, 126° | 534 W/m² | - |
| 1778007314 | 28.33° C | 77% | 1010 hPa | 0 mm | 0.89 m/s, 293° | 306 W/m² | - |
| 1778007010 | 28.33° C | 76% | 1010 hPa | 0 mm | 1.34 m/s, 148° | 306 W/m² | - |
| 1778006707 | 28.89° C | 75% | 1010 hPa | 0 mm | 0.45 m/s, 287° | 228 W/m² | - |
| 1778006403 | 28.33° C | 75% | 1010 hPa | 0 mm | 0.45 m/s, 170° | 348 W/m² | - |
| 1778006101 | 28.33° C | 75% | 1010 hPa | 0 mm | 0.89 m/s, 301° | 424 W/m² | - |
| 1778005797 | 28.33° C | 75% | 1010 hPa | 0 mm | 0.89 m/s, 156° | 550 W/m² | - |
| 1778005494 | 28.33° C | 76% | 1010 hPa | 0 mm | 0.89 m/s, 252° | 272 W/m² | - |
| 1778005190 | 27.78° C | 77% | 1010 hPa | 0 mm | 0.89 m/s, 198° | 384 W/m² | - |
| 1778004888 | 27.78° C | 77% | 1010 hPa | 0 mm | 0.89 m/s, 258° | 411 W/m² | - |
| 1778004585 | 27.78° C | 79% | 1010.4 hPa | 0 mm | 0.89 m/s, 36° | 358 W/m² | - |
| 1778004281 | 27.78° C | 79% | 1010 hPa | 0 mm | 0.89 m/s, 132° | 257 W/m² | - |
| 1778003978 | 27.78° C | 78% | 1010.4 hPa | 0 mm | 0.45 m/s, 168° | 236 W/m² | - |
| 1778003674 | 27.22° C | 79% | 1010 hPa | 0 mm | 0.89 m/s, 12° | 267 W/m² | - |
| 1778003370 | 27.22° C | 80% | 1010.4 hPa | 0 mm | 0 m/s | 300 W/m² | - |
* Rain latest hour (hover to see other rain measurements)
** Current wind speed in m/s (hover to see current wind gust speed)